Printer-friendly version

IAU Minor Planet Center

Minor Planet Center

MPEC 2000-U24: 2000 SG344

The following Minor Planet Electronic Circular may be linked-to from your own Web pages, but must not otherwise be redistributed electronically.


Read MPEC 2000-U23 Read MPEC 2000-U25


M.P.E.C. 2000-U24                                Issued 2000 Oct. 25, 16:57 UT

     The Minor Planet Electronic Circulars contain information on unusual
         minor planets and routine data on comets.  They are published
   on behalf of Commission 20 of the International Astronomical Union by the
          Minor Planet Center, Smithsonian Astrophysical Observatory,
                          Cambridge, MA 02138, U.S.A.

             Prepared using the Tamkin Foundation Computer Network

                              MPC@CFA.HARVARD.EDU
          URL http://cfa-www.harvard.edu/iau/mpc.html  ISSN 1523-6714

                                  2000 SG344

                           Revision to MPEC 2000-U19

Observations:
     K00SY4G  C1999 05 15.20482 12 26 59.59 +04 31 35.3          17.7        704
     K00SY4G  C1999 05 15.21655 12 27 02.52 +04 30 32.5          17.6        704
     K00SY4G  C1999 05 15.22845 12 27 05.37 +04 29 28.4          17.5        704
     K00SY4G  C1999 05 15.24016 12 27 08.41 +04 28 25.0          18.1        704
     K00SY4G  C1999 05 15.25188 12 27 11.45 +04 27 21.6          18.0        704

Observer details:
704 Lincoln Laboratory ETS, New Mexico.  Observers M. Blythe, F. Shelly,
    M. Bezpalko, M. Elowitz, R. Huber, L. Manguso.  Measurers J. Stuart,
    R. Sayer, J. B. Evans, H. Viggh.  1.0-m f/2.15 reflector + CCD.

Orbital elements:
2000 SG344
Epoch 2000 Sept. 13.0 TT = JDT 2451800.5                Williams
M 254.43216              (2000.0)            P               Q
n   1.01582441     Peri.  272.95259     -0.26878117     -0.96320118
a   0.9800697      Node   192.63919     +0.88447395     -0.24664116
e   0.0674341      Incl.    0.10901     +0.38139548     -0.10682522
P   0.97           H   24.6           G   0.15           U   6
Residuals in seconds of arc
990515 704  0.8-  0.2-    000930 568  0.0   0.3-    001001 568  0.1-  0.1+
990515 704  0.9+  0.0     000930 568  0.3+  0.4-    001001 568  0.1+  0.2+
990515 704  0.3-  0.1+    000930 568  0.1+  0.4-    001001 568  0.0   0.2+
990515 704  0.5+  0.0     000930 568  0.1-  0.2+    001002 568  0.2+  0.1+
990515 704  0.3-  0.1+    000930 568  0.2+  0.2+    001002 568  0.0   0.1+
000929 568  0.0   0.1-    000930 568  0.1-  0.2+    001003 568  0.1+  0.2-
000929 568  0.3-  0.0     000930 568  0.3+  0.2+    001003 568  0.2-  0.1-
000930 568  0.2-  0.2-    001001 568  0.4-  0.2+

Gareth V. Williams           (C) Copyright 2000 MPC           M.P.E.C. 2000-U24

Read MPEC 2000-U23 Read MPEC 2000-U25


Our Web policy. Index to the CBAT/MPC/ICQ pages.


Valid HTML 4.01!